Temperature
26 23 22 23 24 25 26 26 25 26 27 26 24 23 22 22 21 19 18 18 18 18 19 19 19 20 19 18 18 18 18 18 18 18 18 18 18 19 19 19 19 19 19 19
23 23 25 26 27 27 26 26 25 26 27 26 23 22 21 20 19 18 17 17 17 17 18 19 19 19 19 18 18 18 18 17 18 18 18 18 18 18 18 18 19 19 19 19
24 26 28 28 27 27 27 26 26 26 25 24 23 21 19 19 18 17 17 16 16 17 17 17 18 18 18 18 18 18 18 17 17 18 18 18 18 18 18 18 18 18 18 18
26 27 27 27 27 27 25 27 26 25 23 21 22 20 18 18 17 17 16 16 15 16 16 16 16 17 17 17 17 17 17 17 17 17 17 18 18 18 17 17 17 17 17 18
25 26 26 26 27 28 27 26 25 24 23 20 20 19 18 17 17 16 16 15 15 15 16 16 16 16 16 16 16 16 16 16 17 17 17 17 17 17 17 17 17 17 17 17
25 26 26 26 27 28 27 24 22 19 19 20 19 18 17 16 16 16 16 15 15 16 16 16 16 16 16 16 16 16 16 16 16 16 16 16 16 16 17 16 16 16 16 16
24 25 25 26 26 26 25 21 20 20 18 19 18 18 17 16 16 16 15 15 16 16 16 16 16 16 16 16 15 15 15 15 15 15 15 15 15 15 15 15 15 15 15 15
23 23 25 26 26 25 25 22 20 20 19 18 18 17 16 16 16 16 16 16 16 16 16 16 16 16 15 15 15 15 15 15 15 15 14 14 14 14 14 14 14 14 14 14
22 23 25 26 26 25 24 22 21 19 20 18 17 17 16 16 16 16 16 16 16 16 16 16 16 15 15 15 15 15 14 14 14 14 14 13 13 13 13 13 13 13 13 13
23 23 25 26 25 24 23 22 19 19 19 19 18 17 16 16 15 16 16 16 16 16 16 16 16 16 15 15 15 14 14 14 13 13 13 13 12 12 12 12 12 12 12 12
23 22 22 23 23 23 23 22 19 17 18 18 18 17 17 16 15 15 15 16 16 16 16 16 16 16 15 15 14 14 14 13 13 13 12 12 12 12 11 11 11 11 11 11
23 19 20 21 22 23 22 22 19 19 19 17 16 16 17 16 16 16 16 16 17 17 16 16 16 15 15 14 14 14 13 13 13 12 12 12 12 11 11 11 11 11 10 10
22 19 19 20 20 21 21 21 20 17 16 17 16 17 16 16 16 16 16 16 16 16 16 15 15 15 14 14 13 13 13 12 12 12 12 11 11 11 11 11 10 10 10 10
22 19 19 20 20 20 20 21 20 18 16 17 17 17 16 15 15 16 16 16 16 15 15 14 14 14 14 13 13 13 12 12 12 12 11 11 11 11 11 10 10 10 10 10
20 20 21 21 21 21 20 20 20 18 18 17 17 16 15 15 15 15 15 15 15 14 14 14 14 13 13 13 13 12 12 12 12 11 11 11 11 10 10 10 10 10 10 10
18 19 19 20 21 20 19 20 20 19 18 18 16 15 15 15 15 15 15 15 14 14 14 13 13 13 13 12 12 12 12 11 11 11 11 11 10 10 10 10 10 9 9 9
19 19 18 18 20 19 17 18 18 17 16 16 15 14 14 14 14 14 15 14 14 14 13 13 13 13 12 12 12 11 11 11 11 11 10 10 10 10 10 9 9 9 9 9
19 18 16 17 18 19 18 19 19 17 15 15 15 14 14 14 15 15 15 14 14 13 13 13 13 12 12 12 11 11 11 10 10 10 10 10 9 9 9 9 9 9 9 9
18 19 18 17 18 18 18 18 18 17 15 15 14 14 14 14 14 13 14 14 13 13 13 12 12 12 11 11 11 10 10 10 9 9 9 9 9 9 9 8 8 8 8 8
18 17 17 17 18 18 17 18 19 17 14 14 14 13 14 13 10 11 14 13 13 12 12 12 11 11 10 10 10 9 9 9 8 8 8 8 8 8 8 8 8 8 8 8
18 17 16 16 17 16 17 18 17 15 14 15 15 14 14 12 12 13 13 13 12 12 11 11 10 10 9 9 8 8 8 8 7 7 7 7 7 7 7 7 7 7 7 7
17 16 16 15 16 16 17 17 15 14 15 15 15 14 14 14 13 13 12 12 11 11 10 9 9 8 8 8 7 7 7 6 6 6 6 6 6 6 6 6 6 7 7 7
17 16 15 15 15 16 17 16 16 16 15 15 14 14 14 13 13 12 11 11 10 9 9 8 8 7 7 7 6 6 6 6 5 5 5 5 5 6 6 6 6 6 6 7
18 17 15 15 15 16 16 16 16 15 15 14 14 13 13 12 12 11 10 10 9 9 8 7 7 7 6 6 6 5 5 5 5 5 5 5 5 5 5 5 6 6 6 6
17 17 15 15 16 16 16 16 15 15 14 14 13 13 12 12 11 10 10 9 8 8 7 7 6 6 6 5 5 5 5 5 5 5 5 5 5 5 5 5 5 5 6 6
16 15 15 14 15 14 15 15 15 14 14 13 13 12 12 11 10 9 9 8 8 7 7 6 6 5 5 5 5 5 5 5 5 4 4 5 5 5 5 5 5 5 6 6
Wind_Speed
3 2 7 11 11 10 7 4 6 6 5 7 10 11 10 11 12 12 10 10 10 9 8 9 9 10 9 6 6 5 6 4 2 1 1 1 2 2 2 3 5 6 6 5
4 6 14 12 7 3 2 4 5 6 8 7 9 11 12 15 13 11 10 8 7 6 7 7 7 7 6 3 4 5 3 2 2 0 1 2 1 2 2 2 3 5 6 6
7 7 6 5 5 4 3 2 3 3 6 8 7 7 9 10 13 14 12 9 8 8 7 7 7 7 6 5 3 3 3 2 2 2 0 0 2 2 2 1 1 3 4 5
2 5 7 7 5 2 3 2 2 4 5 4 4 1 5 6 10 13 11 10 9 8 7 7 7 8 8 6 6 5 4 3 3 3 2 2 1 0 1 2 2 2 3 3
5 6 6 6 5 1 2 1 3 3 3 3 5 4 3 4 7 8 7 8 8 6 6 7 8 8 8 7 6 6 6 6 5 4 4 3 2 1 2 1 2 2 2 2
4 4 2 4 6 3 1 6 7 7 6 3 2 3 3 2 1 2 4 6 5 4 5 6 6 6 6 6 6 6 7 7 7 7 6 6 5 4 4 5 4 4 3 3
6 8 6 2 4 7 5 6 5 6 5 3 1 4 3 1 2 3 3 3 2 3 4 4 4 4 4 4 4 4 5 5 5 5 6 6 5 5 5 4 4 4 4 4
1 6 6 3 1 3 2 7 5 3 4 3 2 1 2 2 1 2 3 3 2 2 3 3 3 3 2 2 2 2 3 2 3 3 3 4 4 3 3 4 4 4 3 4
4 5 5 5 4 1 3 2 5 6 0 1 0 0 2 2 2 2 2 3 2 2 3 3 2 3 3 3 2 2 2 1 1 2 2 3 3 3 4 4 4 4 4 5
5 2 5 5 6 6 3 2 6 4 2 2 1 2 3 5 5 4 3 3 2 1 2 2 3 3 4 4 3 2 2 3 3 3 3 3 4 5 5 5 5 5 5 5
4 3 6 6 4 3 5 4 4 3 4 4 2 4 3 8 7 6 5 4 3 3 3 4 4 4 4 3 3 3 4 4 5 6 6 6 6 6 6 6 7 7 6 7
3 5 2 5 4 0 1 0 3 3 2 2 3 4 2 4 4 4 2 1 2 3 4 4 4 4 3 4 4 5 6 7 7 8 8 8 8 8 7 8 9 8 8 8
4 5 4 8 9 7 6 5 2 4 4 3 2 3 1 1 1 1 1 3 5 6 6 4 4 4 5 5 6 7 8 9 9 8 8 9 9 9 9 10 10 9 9 9
4 5 4 3 6 3 4 8 7 6 4 2 1 1 1 1 2 3 4 6 7 7 6 5 5 6 7 7 8 9 9 9 9 9 9 9 10 10 11 11 10 10 10 10
6 4 3 2 4 9 9 9 9 8 5 3 1 3 2 2 3 4 6 8 6 5 6 7 7 7 8 9 9 9 9 10 10 9 9 10 11 10 10 10 10 10 10 10
5 4 6 5 7 11 11 10 7 7 5 3 4 3 2 3 4 6 8 7 5 7 8 9 9 9 9 10 10 10 10 10 9 10 11 11 10 10 10 10 10 10 10 10
3 4 4 4 2 4 6 6 6 5 5 4 2 2 5 6 8 8 9 7 8 10 10 10 10 10 11 11 11 11 11 10 9 10 11 10 10 10 10 10 9 9 10 9
4 3 3 2 6 4 3 1 5 6 4 4 2 3 5 7 8 8 8 8 10 11 11 11 11 11 11 11 11 11 10 10 10 10 11 10 10 10 10 9 9 10 9 8
4 5 3 3 2 1 0 3 3 1 2 2 3 6 7 8 7 7 9 9 11 12 12 12 11 12 11 11 11 11 10 10 10 10 10 10 10 10 9 9 10 9 8 9
5 6 5 3 2 3 4 4 4 1 3 3 4 7 8 8 8 8 10 10 11 12 11 11 11 11 11 11 10 10 10 10 10 11 11 10 9 10 10 11 10 9 8 9
4 6 5 3 1 3 4 4 5 3 6 6 5 7 7 6 8 10 12 11 11 11 12 12 11 10 11 11 10 11 11 12 12 12 11 11 10 10 11 11 9 9 8 8
4 3 2 2 2 5 4 3 2 5 6 6 6 6 8 9 10 11 11 11 12 11 11 11 10 11 11 11 11 12 14 14 13 13 12 12 12 11 11 9 9 8 8 8
4 7 6 6 5 5 1 4 4 5 4 5 5 7 8 9 10 11 10 10 11 11 11 11 12 13 13 12 12 14 15 14 14 13 13 12 12 11 10 9 9 8 7 7
2 3 4 3 2 3 3 2 1 1 3 5 6 7 8 9 10 11 10 10 11 10 12 11 12 14 15 14 14 14 15 14 14 13 12 11 10 10 9 8 8 7 7 7
5 3 4 2 1 0 3 3 3 3 5 6 7 7 8 9 9 9 10 11 11 11 10 11 13 15 17 16 16 16 15 14 13 12 11 10 9 9 8 8 7 8 7 7
0 5 6 5 6 4 5 5 3 5 6 7 7 8 9 7 9 9 10 10 11 13 13 14 15 16 17 17 17 16 14 12 12 11 10 8 7 7 7 6 7 9 10 10
Wind_Direction
300 123 246 247 226 220 251 286 301 302 334 58 76 72 48 53 67 69 72 75 80 80 74 64 63 70 61 37 61 58 53 5 290 219 119 214 227 220 217 204 181 171 165 161
333 257 246 248 261 263 301 349 336 329 1 52 71 67 56 52 59 67 75 79 77 67 64 61 57 65 82 86 91 101 81 342 20 203 201 225 215 241 238 239 201 188 173 170
229 252 282 307 315 339 348 25 7 344 10 37 74 36 39 48 54 54 50 50 59 64 58 49 54 60 61 58 57 84 89 65 4 309 336 318 31 20 7 327 251 219 196 184
309 323 343 337 321 354 319 320 62 41 51 351 49 53 7 29 42 45 43 41 41 37 43 49 51 50 47 44 44 54 60 52 13 5 40 103 102 74 278 271 272 258 225 208
327 337 344 326 297 311 228 22 39 33 78 45 24 89 317 6 37 36 45 54 52 51 53 57 56 56 51 49 49 42 45 38 20 22 27 41 43 333 305 329 336 319 303 278
311 310 285 269 294 302 84 44 29 39 58 26 332 108 299 325 58 63 59 63 71 77 71 66 63 63 58 52 52 48 45 34 21 22 20 21 19 1 0 355 344 327 315 307
330 323 313 297 345 344 47 68 21 356 3 271 257 116 238 251 124 126 106 79 82 98 100 90 75 71 72 70 64 59 55 38 24 24 19 13 6 3 358 341 334 332 326 319
319 311 304 319 256 255 285 128 149 221 241 260 355 148 237 184 140 116 129 142 167 171 154 144 146 150 149 133 116 98 80 45 17 17 2 353 351 344 330 326 325 325 312 299
194 262 293 311 315 84 7 337 178 154 168 76 267 293 282 210 234 229 172 159 188 175 167 165 174 183 184 180 187 182 167 207 285 299 301 306 309 309 306 307 310 307 305 304
153 259 316 330 19 23 111 131 59 68 73 341 312 220 230 212 220 215 194 191 228 202 179 189 200 205 208 205 203 198 194 217 244 260 269 270 273 275 278 287 293 289 288 292
99 91 329 2 21 338 4 33 82 101 145 149 256 266 246 203 200 193 203 215 231 229 233 241 237 226 223 218 211 218 228 238 248 250 248 254 259 260 262 264 268 270 272 277
66 102 340 302 291 336 70 41 132 129 299 135 154 266 289 183 189 186 208 254 288 283 269 258 255 259 259 255 250 248 248 248 249 248 244 245 250 253 256 258 260 261 263 265
71 85 29 348 344 0 14 2 52 120 95 72 93 285 277 149 115 95 13 336 315 307 300 302 305 294 284 273 265 262 260 256 255 252 249 250 252 252 253 253 254 256 257 260
96 84 136 214 267 313 35 35 40 78 87 64 94 220 360 357 27 2 342 322 313 320 328 326 310 291 281 273 267 265 263 259 258 254 249 250 250 249 251 252 252 252 252 254
78 53 345 318 75 78 69 61 62 72 91 113 113 116 37 7 358 336 326 321 326 331 323 306 290 279 274 270 267 262 259 258 255 251 248 247 248 248 249 249 250 250 250 252
68 53 17 12 93 91 72 46 47 55 46 65 97 90 339 330 344 333 327 323 316 304 297 292 287 281 275 271 268 265 262 259 254 251 251 251 251 251 249 248 248 248 248 248
66 68 42 330 311 81 38 17 45 53 34 73 94 289 311 330 329 315 309 297 294 296 294 289 283 274 272 270 267 267 265 262 258 257 259 257 253 251 248 252 252 247 246 244
125 93 100 359 28 36 226 21 72 102 84 81 96 303 305 296 289 284 288 288 295 296 291 286 281 278 274 271 272 271 269 266 264 263 263 260 256 254 250 246 247 247 244 242
131 128 86 74 44 144 280 6 3 305 197 41 340 315 307 301 315 298 284 284 285 286 285 283 281 282 284 284 282 282 281 278 276 274 270 266 262 259 255 251 247 244 242 244
47 77 88 64 43 245 255 307 311 358 236 286 337 319 309 327 327 297 288 288 289 289 289 291 293 294 295 291 291 292 290 288 284 281 277 273 266 262 259 256 252 248 243 244
26 36 63 69 352 257 278 315 34 57 275 290 299 299 300 295 273 280 295 297 295 296 298 301 302 301 295 295 296 293 290 285 283 283 280 276 269 263 261 257 252 249 247 247
123 102 78 83 17 278 303 48 95 234 256 282 290 292 292 288 287 295 302 303 307 308 309 309 306 302 300 299 300 296 291 288 287 284 280 277 272 271 275 261 256 250 244 248
142 173 175 173 206 226 132 142 198 215 265 284 290 297 300 304 303 306 308 310 310 310 308 305 306 307 306 303 300 296 294 292 290 286 281 278 274 267 263 259 259 257 246 242
253 154 111 110 154 160 134 139 306 310 304 304 307 309 317 313 311 315 315 313 312 309 309 311 314 314 311 308 303 297 296 293 290 286 283 278 274 271 264 257 251 249 245 241
211 134 104 129 220 202 334 339 338 350 347 337 330 322 322 321 319 317 316 315 314 314 313 316 317 314 312 310 307 304 300 296 291 288 283 279 272 269 266 258 249 245 239 232
240 148 149 207 220 198 261 289 356 9 344 333 333 329 326 326 319 320 318 315 316 318 318 318 316 314 313 312 310 309 306 302 298 294 288 281 273 271 266 261 267 255 246 247
Height
1493 1499 1503 1496 1492 1492 1491 1493 1493 1484 1473 1477 1486 1490 1490 1489 1489 1491 1492 1492 1492 1491 1492 1494 1494 1492 1495 1498 1497 1495 1495 1496 1497 1499 1502 1503 1503 1503 1504 1505 1507 1507 1507 1506
1498 1500 1488 1483 1481 1483 1486 1492 1491 1483 1475 1480 1490 1496 1497 1495 1496 1496 1495 1494 1494 1495 1494 1494 1495 1494 1494 1496 1494 1495 1497 1496 1493 1496 1500 1502 1501 1501 1501 1503 1505 1504 1504 1504
1497 1489 1479 1480 1481 1484 1486 1489 1489 1488 1482 1483 1490 1502 1504 1503 1502 1500 1500 1498 1497 1496 1496 1496 1495 1495 1495 1496 1497 1496 1497 1496 1495 1498 1499 1500 1500 1500 1500 1501 1501 1502 1501 1501
1489 1482 1480 1482 1482 1482 1491 1481 1481 1484 1494 1504 1499 1518 1512 1508 1507 1506 1506 1504 1502 1500 1499 1497 1497 1496 1496 1497 1498 1497 1497 1497 1498 1498 1499 1499 1498 1498 1498 1499 1499 1498 1498 1497
1492 1485 1484 1485 1481 1478 1482 1477 1480 1485 1494 1506 1508 1518 1520 1510 1511 1511 1510 1508 1505 1504 1502 1500 1499 1499 1499 1499 1498 1498 1498 1498 1498 1498 1498 1497 1496 1496 1496 1496 1495 1495 1494 1494
1488 1483 1482 1481 1476 1474 1475 1481 1488 1497 1505 1520 1515 1521 1523 1516 1513 1511 1510 1508 1507 1505 1503 1501 1501 1501 1501 1500 1500 1500 1499 1498 1497 1497 1496 1495 1494 1493 1492 1492 1491 1490 1489 1489
1494 1486 1479 1477 1480 1478 1479 1499 1519 1522 1530 1528 1515 1520 1523 1513 1510 1510 1510 1509 1508 1506 1504 1503 1502 1502 1502 1502 1501 1501 1500 1498 1497 1496 1494 1493 1491 1490 1488 1487 1486 1485 1484 1484
1507 1504 1484 1479 1481 1485 1483 1496 1521 1531 1532 1527 1519 1522 1520 1512 1511 1510 1509 1508 1508 1507 1505 1504 1503 1502 1502 1501 1501 1500 1498 1497 1496 1494 1493 1491 1489 1487 1485 1483 1481 1480 1479 1478
1507 1503 1482 1478 1476 1479 1487 1494 1496 1513 1515 1527 1526 1523 1518 1513 1511 1510 1509 1509 1508 1507 1506 1505 1503 1502 1501 1500 1498 1497 1496 1495 1493 1492 1490 1488 1486 1483 1481 1479 1477 1476 1474 1473
1494 1501 1488 1481 1478 1480 1483 1488 1501 1513 1525 1531 1526 1524 1522 1514 1511 1509 1509 1508 1508 1507 1506 1505 1503 1501 1499 1497 1496 1494 1493 1491 1489 1487 1485 1484 1482 1480 1478 1475 1473 1472 1470 1468
1488 1501 1498 1491 1491 1492 1489 1492 1501 1512 1515 1528 1532 1528 1510 1510 1508 1508 1508 1508 1507 1506 1504 1503 1501 1498 1496 1494 1492 1491 1489 1487 1485 1483 1481 1479 1477 1475 1473 1471 1469 1467 1465 1463
1489 1502 1509 1499 1488 1485 1488 1491 1499 1514 1516 1518 1529 1528 1507 1508 1508 1508 1508 1508 1506 1505 1503 1500 1497 1495 1493 1491 1489 1487 1485 1483 1481 1478 1476 1474 1472 1469 1467 1465 1463 1461 1459 1457
1491 1506 1520 1515 1506 1494 1494 1492 1494 1504 1515 1521 1529 1526 1510 1509 1510 1509 1509 1507 1505 1503 1500 1497 1495 1492 1490 1488 1485 1483 1480 1477 1475 1472 1469 1467 1465 1463 1460 1458 1456 1454 1452 1450
1488 1504 1515 1522 1514 1502 1503 1499 1497 1505 1520 1522 1520 1518 1514 1512 1511 1510 1509 1507 1504 1501 1498 1495 1492 1490 1487 1484 1481 1477 1474 1471 1468 1465 1462 1459 1457 1455 1453 1450 1449 1447 1445 1443
1491 1505 1502 1501 1498 1500 1504 1504 1503 1507 1510 1518 1516 1517 1516 1514 1512 1510 1507 1504 1500 1498 1495 1492 1488 1485 1482 1478 1474 1471 1467 1464 1460 1457 1454 1451 1449 1447 1444 1442 1440 1438 1437 1435
1495 1504 1505 1506 1501 1503 1509 1507 1505 1507 1509 1511 1514 1518 1514 1512 1510 1507 1504 1500 1497 1493 1490 1486 1482 1479 1475 1471 1467 1462 1459 1455 1452 1448 1445 1443 1440 1437 1435 1433 1431 1430 1428 1427
1499 1504 1511 1515 1506 1506 1521 1514 1512 1513 1514 1514 1519 1518 1512 1509 1506 1503 1500 1496 1493 1488 1484 1480 1476 1471 1467 1462 1458 1453 1450 1446 1442 1439 1436 1433 1430 1428 1426 1424 1422 1420 1419 1418
1498 1505 1514 1517 1515 1525 1521 1509 1509 1513 1516 1514 1514 1512 1509 1507 1503 1500 1496 1492 1487 1483 1478 1473 1468 1463 1459 1454 1449 1445 1440 1437 1433 1429 1426 1423 1421 1418 1416 1414 1412 1411 1410 1408
1493 1501 1512 1521 1523 1521 1515 1510 1509 1511 1515 1512 1511 1508 1505 1501 1498 1494 1492 1488 1483 1477 1472 1467 1461 1456 1451 1446 1441 1436 1431 1427 1423 1420 1416 1413 1411 1408 1406 1404 1403 1401 1400 1399
1497 1501 1513 1520 1522 1527 1520 1509 1506 1508 1514 1510 1507 1505 1501 1497 1497 1491 1486 1482 1476 1471 1466 1460 1454 1449 1443 1438 1433 1427 1422 1418 1414 1410 1406 1404 1401 1399 1396 1394 1393 1392 1391 1390
1509 1513 1519 1523 1523 1522 1513 1508 1507 1518 1518 1508 1505 1502 1499 1496 1493 1486 1480 1476 1471 1465 1460 1454 1448 1442 1436 1430 1424 1418 1413 1408 1404 1400 1396 1393 1390 1388 1386 1384 1383 1382 1381 1381
1514 1519 1521 1524 1528 1525 1510 1508 1513 1514 1508 1505 1502 1499 1495 1491 1487 1481 1476 1470 1465 1459 1453 1447 1441 1434 1428 1422 1416 1409 1403 1398 1393 1389 1385 1382 1379 1377 1376 1374 1373 1373 1373 1372
1509 1511 1514 1518 1521 1512 1509 1509 1509 1508 1506 1503 1500 1496 1492 1487 1482 1477 1471 1466 1460 1454 1447 1441 1434 1426 1420 1414 1408 1400 1393 1388 1383 1378 1374 1371 1368 1367 1366 1365 1364 1364 1364 1364
1504 1502 1508 1512 1511 1510 1509 1508 1507 1505 1503 1500 1497 1493 1488 1483 1478 1472 1467 1461 1454 1448 1441 1434 1426 1419 1412 1405 1398 1392 1384 1378 1373 1368 1364 1361 1359 1357 1356 1356 1355 1355 1355 1356
1502 1503 1508 1510 1509 1508 1507 1506 1504 1502 1499 1496 1493 1490 1485 1480 1474 1469 1463 1456 1449 1442 1435 1428 1420 1412 1404 1397 1390 1383 1376 1370 1364 1359 1356 1353 1351 1349 1348 1347 1347 1348 1348 1349
1501 1503 1507 1510 1506 1506 1505 1503 1501 1499 1496 1493 1490 1485 1482 1477 1471 1465 1459 1452 1445 1437 1430 1422 1414 1405 1397 1390 1382 1375 1369 1363 1357 1352 1349 1346 1344 1342 1341 1341 1341 1341 1342 1343